Location: Skalnate Pleso
(49.1889°N, 20.2450°E)
Time: 17:45:49
(UTC+01:00)

Meteor PRIRODA - Pass Details

Date: 19 November 2019
Orbit: 490 x 512 km, 97.5° (Epoch: 12 December)

Event Time Altitude Azimuth Distance (km) Brightness Sun altitude
Rises 05:17:42 0° 6° (N) 2,605 7.2 -15.6°
Reaches altitude 10° 05:19:54 10° 357° (N) 1,712 6.2 -15.2°
Maximum altitude 05:23:17 35° 291° (WNW) 819 4.2 -14.7°
Drops below altitude 10° 05:26:36 10° 224° (SW) 1,689 6.0 -14.2°
Sets 05:28:46 0° 216° (SW) 2,563 7.0 -13.8°
